Location: Newark
(25.4297°S, 49.2719°W)
Time: 18:07:07
(UTC+00:00)

Vanguard 1 Rocket - Pass Details

Date: 21 November 2019
Orbit: 650 x 4226 km, 34.3° (Epoch: 14 December)

Event Time Altitude Azimuth Distance (km) Brightness Sun altitude
Rises 18:43:24 0° 272° (W) 7,331 12.9 39.2°
Reaches altitude 10° 18:47:52 10° 268° (W) 6,650 13.1 38.2°
Maximum altitude 19:12:47 69° 185° (S) 4,404 11.5 32.6°
Drops below altitude 10° 19:36:21 10° 102° (ESE) 6,340 11.3 27.4°
Sets 19:40:29 0° 99° (E) 6,995 11.4 26.5°
